Location: ??????
(36.0418°N, 43.6351°E)
Time: 03:54:56
(UTC+00:00)

Daily predictions for brighter satellites

Satellite Brightness Start Highest point End
(mag) Time Altitude Azimuth Time Altitude Azimuth Time Altitude Azimuth
USA 234 4.0 00:11:09 10° ESE 00:16:24 48° ENE 00:16:24 48° ENE
Lacrosse 4 Rocket 4.1 00:39:04 17° NNE 00:40:15 18° NE 00:43:20 10° E
S3M 4.5 00:44:30 53° NNE 00:44:30 53° NNE 00:49:09 10° N
Cosmos 1745 Rocket 4.1 00:47:22 10° N 00:53:41 74° E 01:00:02 10° SSE
Lacrosse 5 4.1 01:02:55 14° N 01:05:45 21° NE 01:09:33 10° E
Cosmos 2360 Rocket 2.6 01:04:21 10° NNW 01:09:59 60° ENE 01:15:33 10° SE
ALOS 2.7 01:08:05 10° NNE 01:12:42 58° E 01:13:09 55° SE
CZ-4C R/B 2.6 01:19:04 38° SSE 01:20:20 48° ESE 01:25:28 10° NE
CZ-2C R/B 3.8 01:18:11 10° N 01:20:22 26° N 01:20:22 26° N
Cosmos 1386 Rocket 4.4 01:19:10 10° NNW 01:25:27 63° W 01:31:37 10° S
Milstar 3 Cent rocket 2.8 01:28:13 34° S 01:28:17 34° S 01:32:28 10° ESE
OAO 3 Rocket 3.2 01:28:37 70° S 01:28:40 70° S 01:33:28 10° E
H-2A R/B 3.4 01:25:31 10° SE 01:29:29 39° ENE 01:33:23 10° N
Cosmos 2333 Rocket 3.6 01:26:00 10° N 01:31:23 39° ENE 01:36:44 10° SE
BREEZE-M DEB (TANK) 3.5 01:34:32 40° ENE 01:34:32 40° ENE 01:37:46 10° ESE
Cosmos 883 Rocket 4.4 01:35:56 38° SW 01:38:12 61° W 01:44:17 10° N
Cosmos 2251 Rocket 3.5 01:38:25 56° W 01:38:56 59° WNW 01:44:15 10° N
NOSS 3-2 (A) 4.3 01:31:43 10° NNW 01:39:33 74° ENE 01:48:14 10° SE
Cosmos 2322 Rocket 3.6 01:45:18 21° SSW 01:45:18 21° SSW 01:47:19 10° S
Cosmos 1484 Rocket 2.9 01:41:06 10° N 01:44:08 55° NNW 01:44:08 55° NNW
Meteor 2-17 Rocket 4.3 01:43:14 10° N 01:49:18 84° W 01:55:21 10° S
Geosat 4.4 01:46:43 10° N 01:51:26 42° WNW 01:52:07 40° W
Cosmos 2219 Rocket 3.0 01:49:22 10° NNW 01:54:54 52° ENE 02:00:25 10° SE
CZ-4B R/B 3.9 01:51:24 10° NNE 01:55:04 67° E 01:58:40 10° S
Cosmos 2315 Rocket 4.0 01:51:22 14° SSW 01:56:34 53° W 02:02:37 10° N
CENTAUR R/B 3.6 01:48:31 10° NNW 01:56:51 66° NE 02:05:43 10° SE
CZ-3 R/B 3.5 01:42:21 18° SW 01:57:46 46° S 02:04:33 10° ESE
Cosmos 2344 4.3 01:56:14 27° WNW 01:58:40 33° NW 02:05:35 10° NNE
Cosmos 614 Rocket 4.0 01:57:01 27° SW 01:59:43 57° WNW 02:04:52 10° N
COSMOS 2487 4.4 02:01:56 16° NNW 02:01:56 16° NNW 02:02:57 10° N
USA 234 3.6 01:54:24 10° SSE 02:00:27 40° SW 02:03:49 24° WNW
COSMOS 2428 3.6 01:56:41 10° N 02:02:15 51° ENE 02:07:47 10° SE
Cosmos 407 Rocket 3.5 01:58:53 10° SSW 02:04:05 84° ESE 02:09:16 10° NNE
Cosmos 1606 4.4 02:07:16 19° NW 02:07:16 19° NW 02:08:48 10° NNW
NOSS 3-4 (A) 3.3 02:07:13 16° SW 02:11:50 70° WNW 02:17:56 10° NNE
NOSS 3-4 (C) 3.3 02:07:14 16° SW 02:11:55 71° WNW 02:18:02 10° NNE
Meteor 1-25 Rocket 4.3 02:07:12 10° N 02:12:46 81° E 02:18:19 10° S
Cosmos 1328 Rocket 3.7 02:09:01 10° S 02:13:17 72° E 02:17:34 10° NNE
Cosmos 1190 Rocket 4.2 02:08:16 10° S 02:13:34 78° ESE 02:18:53 10° NNE
GPS 2-04 Rocket1 2.5 02:14:01 33° W 02:15:34 84° S 02:19:26 10° E
Iridium 51 4.0 02:11:58 10° N 02:15:43 89° E 02:19:13 10° S
ATLAS 5 CENTAUR R/B 1.3 02:14:02 26° SW 02:16:01 58° NW 02:20:10 10° NNE
METEOR-M 4.5 02:12:33 10° N 02:17:34 42° WNW 02:22:33 10° SW
Lacrosse 4 Rocket 1.9 02:15:30 13° NW 02:19:06 40° WSW 02:23:09 10° S
NOSS 3-2 (C) 4.3 02:12:16 10° NNW 02:20:09 81° ENE 02:28:54 10° SSE
COSMO-SKYMED 1 2.6 02:20:29 10° SSE 02:24:49 83° ENE 02:29:10 10° N
Cosmos 2322 3.6 02:19:43 10° NNW 02:25:20 66° WSW 02:30:55 10° S
Cosmos 2074 Rocket 4.1 02:19:16 10° N 02:25:30 85° E 02:31:42 10° S
Cosmos 1805 Rocket 4.3 02:21:48 10° NNW 02:25:44 31° W 02:29:39 10° SSW
ATLAS 2AS CENTAUR R/B 3.0 02:18:31 10° SSW 02:26:25 87° WNW 02:34:20 10° NNE
Cosmos 1602 3.8 02:24:47 10° N 02:28:43 83° E 02:32:36 10° S
Cosmos 1933 4.0 02:25:09 10° SW 02:28:45 32° WNW 02:32:24 10° NNW
ISS -1.0 02:27:55 10° N 02:29:26 12° NNE 02:30:57 10° NE
Delta 2 Rocket 3.8 02:33:20 17° W 02:37:08 82° S 02:42:32 10° E
RESURS DK-1 3.7 02:33:32 10° S 02:37:24 42° ESE 02:41:18 10° NE
deb Chang Zheng 4 3.5 02:33:52 10° NNE 02:38:11 90° WNW 02:42:30 10° SSW
Envisat 3.4 02:34:02 10° NNE 02:39:06 69° ESE 02:44:08 10° S
Meteor 1-20 Rocket 4.4 02:35:36 10° NNW 02:41:07 52° W 02:46:43 10° SSW
Cosmos 1140 Rocket 3.8 02:42:28 10° SW 02:47:26 43° WNW 02:52:22 10° N
Sich 1 4.1 02:44:08 10° NW 02:47:38 23° W 02:51:05 10° SW
ADEOS 4.3 02:43:15 10° N 02:47:52 33° WNW 02:52:28 10° SW
YAOGAN 6 2.4 02:45:35 10° N 02:49:06 88° W 02:52:34 10° SSW
Lacrosse 5 1.8 02:44:07 10° NW 02:49:10 71° SW 02:54:11 10° SSE
Cosmos 1666 Rocket 4.0 02:45:11 10° NNW 02:49:14 38° W 02:53:18 10° SSW
ALOS 4.0 02:47:29 10° NW 02:49:34 13° WNW 02:51:38 10° W
Cosmos 2184 Rocket 4.1 02:43:44 10° NNW 02:49:59 63° W 02:56:15 10° S
SJ-7 4.4 02:48:48 10° NNE 02:52:50 90° ESE 02:56:53 10° SSW
Cosmos 2360 Rocket 3.6 02:50:06 10° WNW 02:53:21 16° W 02:56:37 10° SW
CZ-2C R/B 4.2 02:48:21 10° SE 02:53:35 43° ENE 02:58:51 10° N
H-2A R/B 2.9 02:50:14 10° N 02:54:01 50° WNW 02:57:45 10° SSW
Cosmos 1812 2.7 02:51:29 10° S 02:55:19 85° W 02:59:11 10° N
Sakura Rocket 4.3 02:52:13 10° WSW 02:55:19 22° SSW 02:58:13 10° SE
Meteor 1-31 Rocket 4.2 02:53:36 10° NNW 02:56:21 19° WNW 02:59:05 10° WSW
CZ-4B R/B 1.9 02:55:59 10° SSW 02:58:51 32° W 03:01:40 10° NNW
Cosmos 2237 Rocket 3.1 02:53:55 10° NNW 02:59:29 55° ENE 03:04:59 10° SE
CZ-4B R/B 3.5 02:55:20 10° N 02:59:38 44° WNW 03:03:53 10° SW
USA 238 DEB 4.3 02:53:14 10° NW 03:00:09 44° WSW 03:07:16 10° S
USA 238 4.3 02:53:20 10° NW 03:00:15 44° WSW 03:07:22 10° S
SeaSat 1 2.9 02:59:34 10° S 03:04:11 41° WSW 03:08:51 10° NW
ATLAS 3B R/B 4.2 03:02:44 10° NNW 03:09:19 41° NE 03:16:08 10° ESE
